| time (UTC) | temp F | wind direction | speed knots | gust knots | rain 1hr in | rain 24hr in | rain mn in | humidity % | barometer mb |
| 20260509171611 | 62 | 313 | 2.6 | 6.1 | 0.00 | 0.00 | 0.00 | 53 | 1021.2 |
| 20260509163036 | 61 | 329 | 0.9 | 3.5 | 0.00 | 0.00 | 0.00 | 50 | 1021.4 |
| 20260509161534 | 59 | 357 | 0.9 | 2.6 | 0.00 | 0.00 | 0.00 | 54 | 1021.5 |
| 20260509160035 | 58 | 355 | 0.0 | 3.5 | 0.00 | 0.00 | 0.00 | 58 | 1021.5 |
| 20260509154535 | 57 | 66 | 0.0 | 2.6 | 0.00 | 0.00 | 0.00 | 59 | 1021.7 |
| 20260509153036 | 54 | 270 | 0.0 | 1.7 | 0.00 | 0.00 | 0.00 | 62 | 1021.7 |
| 20260509151533 | 53 | 223 | 0.0 | 1.7 | 0.00 | 0.00 | 0.00 | 68 | 1021.7 |
| 20260509144533 | 48 | 120 | 0.0 | 0.9 | 0.00 | 0.00 | 0.00 | 80 | 1021.7 |
| 20260509141537 | 41 | 202 | 0.0 | 0.0 | 0.00 | 0.00 | 0.00 | 89 | 1021.7 |
| 20260509134534 | 37 | 194 | 0.0 | 1.7 | 0.00 | 0.00 | 0.00 | 90 | 1021.4 |
| 20260509131535 | 37 | 123 | 1.7 | 4.3 | 0.00 | 0.00 | 0.00 | 90 | 1021.2 |
| 20260509123031 | 38 | 194 | 0.9 | 5.2 | 0.00 | 0.00 | 0.00 | 90 | 1020.9 |
| 20260509121535 | 37 | 161 | 2.6 | 4.3 | 0.00 | 0.00 | 0.00 | 89 | 1020.9 |
| 20260509120031 | 37 | 146 | 1.7 | 3.5 | 0.00 | 0.00 | 0.00 | 89 | 1020.9 |
| 20260509114606 | 38 | 150 | 1.7 | 3.5 | 0.00 | 0.00 | 0.00 | 89 | 1020.7 |
| 20260509113032 | 39 | 166 | 1.7 | 3.5 | 0.00 | 0.00 | 0.00 | 88 | 1020.8 |
| 20260509111533 | 39 | 177 | 0.0 | 1.7 | 0.00 | 0.00 | 0.00 | 88 | 1020.9 |
| 20260509110035 | 40 | 172 | 1.7 | 3.5 | 0.00 | 0.00 | 0.00 | 87 | 1020.9 |
| 20260509104643 | 41 | 160 | 1.7 | 5.2 | 0.00 | 0.00 | 0.00 | 86 | 1020.9 |
| 20260509101535 | 44 | 207 | 1.7 | 6.1 | 0.00 | 0.00 | 0.00 | 82 | 1021.2 |
| 20260509094534 | 42 | 168 | 1.7 | 5.2 | 0.00 | 0.00 | 0.00 | 85 | 1021.2 |
| 20260509093109 | 43 | 162 | 1.7 | 4.3 | 0.00 | 0.00 | 0.00 | 84 | 1021.4 |
| 20260509091642 | 43 | 62 | 1.7 | 4.3 | 0.00 | 0.00 | 0.00 | 83 | 1021.5 |
| 20260509090036 | 45 | 20 | 0.9 | 4.3 | 0.00 | 0.00 | 0.00 | 81 | 1021.6 |
| 20260509084609 | 46 | 136 | 1.7 | 5.2 | 0.00 | 0.00 | 0.00 | 80 | 1021.8 |
| 20260509083038 | 46 | 178 | 2.6 | 5.2 | 0.00 | 0.00 | 0.00 | 80 | 1022.0 |
| 20260509081536 | 47 | 163 | 0.9 | 3.5 | 0.00 | 0.00 | 0.00 | 78 | 1022.2 |
| 20260509080035 | 47 | 169 | 3.5 | 5.2 | 0.00 | 0.00 | 0.00 | 78 | 1022.3 |
| 20260509074533 | 47 | 164 | 2.6 | 7.8 | 0.00 | 0.00 | 0.00 | 78 | 1022.4 |
| 20260509073036 | 48 | 129 | 1.7 | 5.2 | 0.00 | 0.00 | 0.00 | 78 | 1022.5 |
| 20260509071536 | 48 | 183 | 4.3 | 6.1 | 0.00 | 0.00 | 0.00 | 78 | 1022.5 |
| 20260509070036 | 49 | 206 | 2.6 | 4.3 | 0.00 | 0.00 | 0.00 | 75 | 1022.6 |
| 20260509064533 | 54 | 201 | 1.7 | 3.5 | 0.00 | 0.00 | 0.00 | 66 | 1022.7 |
| 20260509061534 | 55 | 265 | 1.7 | 4.3 | 0.00 | 0.00 | 0.00 | 65 | 1022.7 |
| 20260509060036 | 54 | 181 | 0.9 | 4.3 | 0.00 | 0.00 | 0.00 | 67 | 1022.8 |
| 20260509054535 | 53 | 93 | 1.7 | 5.2 | 0.00 | 0.00 | 0.00 | 67 | 1022.6 |
| 20260509051534 | 53 | 212 | 0.0 | 3.5 | 0.00 | 0.00 | 0.00 | 67 | 1022.5 |
| 20260509050111 | 53 | 235 | 0.0 | 5.2 | 0.00 | 0.00 | 0.00 | 66 | 1022.4 |
| 20260509044534 | 54 | 231 | 1.7 | 6.1 | 0.00 | 0.00 | 0.00 | 65 | 1022.4 |
| 20260509041531 | 54 | 227 | 2.6 | 7.8 | 0.00 | 0.00 | 0.00 | 63 | 1022.1 |
| 20260509040032 | 55 | 232 | 2.6 | 7.8 | 0.00 | 0.00 | 0.00 | 62 | 1021.9 |
| 20260509034607 | 56 | 240 | 2.6 | 7.8 | 0.00 | 0.00 | 0.00 | 61 | 1021.7 |
| 20260509031535 | 57 | 246 | 3.5 | 9.6 | 0.00 | 0.00 | 0.00 | 58 | 1021.3 |
| 20260509030033 | 58 | 251 | 2.6 | 7.8 | 0.00 | 0.00 | 0.00 | 57 | 1021.2 |
| 20260509024530 | 59 | 258 | 6.1 | 13.0 | 0.00 | 0.00 | 0.00 | 55 | 1021.1 |
| 20260509023110 | 60 | 268 | 6.1 | 11.3 | 0.00 | 0.00 | 0.00 | 53 | 1021.0 |
| 20260509021533 | 61 | 265 | 6.1 | 10.4 | 0.00 | 0.00 | 0.00 | 51 | 1020.9 |
| 20260509020034 | 62 | 260 | 7.8 | 13.9 | 0.00 | 0.00 | 0.00 | 49 | 1020.8 |
| 20260509014534 | 63 | 254 | 7.0 | 14.8 | 0.00 | 0.00 | 0.00 | 46 | 1020.7 |
| 20260509011536 | 64 | 260 | 8.7 | 17.4 | 0.00 | 0.00 | 0.00 | 44 | 1020.7 |
| 20260509010034 | 64 | 258 | 8.7 | 15.6 | 0.00 | 0.00 | 0.00 | 43 | 1020.6 |
| 20260509004641 | 65 | 275 | 8.7 | 19.1 | 0.00 | 0.00 | 0.00 | 42 | 1020.5 |
| 20260509003142 | 65 | 274 | 7.0 | 13.9 | 0.00 | 0.00 | 0.00 | 40 | 1020.3 |
| 20260509001537 | 67 | 267 | 7.8 | 15.6 | 0.00 | 0.00 | 0.00 | 37 | 1019.9 |
| 20260508234532 | 67 | 256 | 5.2 | 13.9 | 0.00 | 0.00 | 0.00 | 37 | 1019.9 |
| 20260508231536 | 66 | 269 | 7.0 | 19.1 | 0.00 | 0.00 | 0.00 | 36 | 1019.8 |
| 20260508230036 | 66 | 278 | 9.6 | 17.4 | 0.00 | 0.00 | 0.00 | 36 | 1019.6 |
| 20260508224533 | 67 | 267 | 7.8 | 16.5 | 0.00 | 0.00 | 0.00 | 34 | 1019.6 |
| 20260508223110 | 68 | 275 | 7.8 | 15.6 | 0.00 | 0.00 | 0.00 | 33 | 1019.5 |
| 20260508221537 | 67 | 260 | 9.6 | 20.0 | 0.00 | 0.00 | 0.00 | 31 | 1019.5 |
| 20260508220033 | 67 | 270 | 7.8 | 18.2 | 0.00 | 0.00 | 0.00 | 31 | 1019.5 |
| 20260508214607 | 67 | 245 | 7.8 | 18.2 | 0.00 | 0.00 | 0.00 | 29 | 1019.6 |
| 20260508211534 | 67 | 247 | 7.0 | 14.8 | 0.00 | 0.00 | 0.00 | 30 | 1019.6 |
| 20260508210142 | 66 | 261 | 9.6 | 19.1 | 0.00 | 0.00 | 0.00 | 32 | 1019.5 |
| 20260508203037 | 66 | 260 | 7.0 | 17.4 | 0.00 | 0.00 | 0.00 | 33 | 1019.6 |
| 20260508201536 | 65 | 270 | 5.2 | 13.9 | 0.00 | 0.00 | 0.00 | 35 | 1019.5 |
| 20260508200034 | 65 | 275 | 6.1 | 19.1 | 0.00 | 0.00 | 0.00 | 35 | 1019.4 |
| 20260508194534 | 64 | 276 | 7.8 | 16.5 | 0.00 | 0.00 | 0.00 | 38 | 1019.4 |
| 20260508193037 | 63 | 276 | 8.7 | 17.4 | 0.00 | 0.00 | 0.00 | 39 | 1019.3 |
| 20260508191534 | 63 | 282 | 10.4 | 18.2 | 0.00 | 0.00 | 0.00 | 39 | 1019.3 |
| 20260508183035 | 61 | 287 | 7.8 | 19.1 | 0.00 | 0.00 | 0.00 | 42 | 1019.2 |
| 20260508181607 | 57 | 28 | 1.7 | 5.2 | 0.00 | 0.00 | 0.00 | 59 | 1019.1 |
| 20260508180035 | 55 | 195 | 0.0 | 2.6 | 0.00 | 0.00 | 0.00 | 63 | 1019.1 |
| 20260508174535 | 55 | 245 | 1.7 | 4.3 | 0.00 | 0.00 | 0.00 | 65 | 1019.2 |